When you browse on this site, cookies collect data to enhance your experience and personalize the content and advertising you see.
Visit our Privacy Policy to learn more. By continuing to use the site, you agree to this use of cookies and data.
EN

Hourly Weather Kakanj

Today, 5 August, Wednesday

Time Temperature Precipitation Wind Pressure Humidity
00:00 +19°C° 1 mm 1 mps 718 mmHg 98%
01:00 +18°C° 1 mm 2 mps 718 mmHg 98%
02:00 +18°C° 1.7 mm 2 mps 718 mmHg 98%
03:00 +17°C° 1.7 mm 2 mps 718 mmHg 98%
04:00 +17°C° 1.7 mm 2 mps 718 mmHg 98%
05:00 +18°C° 0.3 mm 1 mps 719 mmHg 98%
06:00 +19°C° 0.3 mm 1 mps 719 mmHg 98%
07:00 +19°C° 0.3 mm 1 mps 719 mmHg 98%
08:00 +19°C° 0.7 mm 1 mps 719 mmHg 98%
09:00 +19°C° 0.7 mm 1 mps 720 mmHg 98%
10:00 +19°C° 0.7 mm 2 mps 720 mmHg 97%
11:00 +19°C° 3.7 mm 2 mps 720 mmHg 97%
12:00 +18°C° 3.7 mm 2 mps 720 mmHg 96%
13:00 +18°C° 3.7 mm 2 mps 720 mmHg 95%
14:00 +19°C° 0.5 mm 2 mps 719 mmHg 94%
15:00 +19°C° 0.5 mm 2 mps 719 mmHg 93%
16:00 +19°C° 0.5 mm 2 mps 719 mmHg 91%
17:00 +18°C° 0 mm 2 mps 719 mmHg 93%
18:00 +18°C° 0 mm 2 mps 720 mmHg 95%
19:00 +18°C° 0 mm 1 mps 720 mmHg 96%
20:00 +18°C° 0.6 mm 1 mps 720 mmHg 97%
21:00 +18°C° 0.6 mm 1 mps 720 mmHg 98%
22:00 +18°C° 0.6 mm 1 mps 720 mmHg 98%
23:00 +18°C° 1.1 mm 1 mps 720 mmHg 99%

Tomorrow, 6 August, Thursday

Time Temperature Precipitation Wind Pressure Humidity
00:00 +18°C° 1.1 mm 1 mps 720 mmHg 99%
01:00 +18°C° 1.1 mm 1 mps 720 mmHg 99%
02:00 +18°C° 0.1 mm 1 mps 720 mmHg 99%
03:00 +19°C° 0.1 mm 1 mps 720 mmHg 99%
04:00 +19°C° 0.1 mm 1 mps 721 mmHg 99%
05:00 +19°C° 0.8 mm 1 mps 721 mmHg 99%
06:00 +19°C° 0.8 mm 1 mps 721 mmHg 98%
07:00 +19°C° 0.8 mm 1 mps 721 mmHg 98%
08:00 +20°C° 0.7 mm 1 mps 721 mmHg 97%
09:00 +20°C° 0.7 mm 2 mps 722 mmHg 95%
10:00 +20°C° 0.7 mm 2 mps 722 mmHg 94%
11:00 +20°C° 1.1 mm 2 mps 722 mmHg 94%
12:00 +20°C° 1.1 mm 2 mps 722 mmHg 95%
13:00 +19°C° 1.1 mm 2 mps 722 mmHg 96%
14:00 +20°C° 0.5 mm 2 mps 722 mmHg 92%
15:00 +20°C° 0.5 mm 2 mps 722 mmHg 89%
16:00 +21°C° 0.5 mm 2 mps 722 mmHg 85%
17:00 +20°C° 0.1 mm 2 mps 722 mmHg 86%
18:00 +20°C° 0.1 mm 1 mps 722 mmHg 87%
19:00 +19°C° 0.1 mm 1 mps 723 mmHg 88%
20:00 +19°C° 0 mm 1 mps 723 mmHg 88%
21:00 +18°C° 0 mm 1 mps 723 mmHg 89%
22:00 +18°C° 0 mm 1 mps 723 mmHg 89%
23:00 +18°C° 0.1 mm 1 mps 723 mmHg 91%

Day after tomorrow, 7 August, Friday

Time Temperature Precipitation Wind Pressure Humidity
00:00 +16°C° 0.1 mm 1 mps 723 mmHg 93%
01:00 +16°C° 0.1 mm 1 mps 723 mmHg 94%
02:00 +16°C° 0 mm 1 mps 723 mmHg 95%
03:00 +16°C° 0 mm 1 mps 723 mmHg 95%
04:00 +18°C° 0 mm 1 mps 723 mmHg 96%
05:00 +18°C° 0 mm 1 mps 723 mmHg 95%
06:00 +19°C° 0 mm 1 mps 723 mmHg 94%
07:00 +20°C° 0 mm 1 mps 724 mmHg 93%
08:00 +22°C° 0 mm 1 mps 724 mmHg 84%
09:00 +23°C° 0 mm 2 mps 724 mmHg 76%
10:00 +25°C° 0 mm 2 mps 724 mmHg 67%
11:00 +26°C° 0 mm 3 mps 724 mmHg 66%
12:00 +26°C° 0 mm 4 mps 724 mmHg 64%
13:00 +26°C° 0 mm 4 mps 724 mmHg 63%
14:00 +26°C° 0.6 mm 4 mps 724 mmHg 70%
15:00 +25°C° 0.6 mm 3 mps 723 mmHg 77%
16:00 +24°C° 0.6 mm 2 mps 723 mmHg 84%
17:00 +23°C° 0.9 mm 2 mps 723 mmHg 86%
18:00 +21°C° 0.9 mm 2 mps 723 mmHg 89%
19:00 +20°C° 0.9 mm 1 mps 723 mmHg 91%
20:00 +20°C° 0.7 mm 1 mps 723 mmHg 92%
21:00 +19°C° 0.7 mm 1 mps 723 mmHg 93%
22:00 +19°C° 0.7 mm 1 mps 724 mmHg 93%
23:00 +19°C° 0 mm 1 mps 723 mmHg 93%

8 August, Saturday

Time Temperature Precipitation Wind Pressure Humidity
00:00 +17°C° 0 mm 0 mps 723 mmHg 93%
01:00 +16°C° 0 mm 0 mps 723 mmHg 93%
02:00 +16°C° 0 mm 0 mps 723 mmHg 94%
03:00 +16°C° 0 mm 0 mps 723 mmHg 94%
04:00 +18°C° 0 mm 1 mps 722 mmHg 94%
05:00 +19°C° 0 mm 1 mps 723 mmHg 93%
06:00 +20°C° 0 mm 1 mps 723 mmHg 93%
07:00 +21°C° 0 mm 1 mps 723 mmHg 93%
08:00 +22°C° 0 mm 1 mps 723 mmHg 84%
09:00 +24°C° 0 mm 2 mps 723 mmHg 76%
10:00 +26°C° 0 mm 2 mps 724 mmHg 68%
11:00 +26°C° 0.5 mm 3 mps 723 mmHg 70%
12:00 +26°C° 0.5 mm 3 mps 723 mmHg 71%
13:00 +27°C° 0.5 mm 3 mps 723 mmHg 73%
14:00 +26°C° 1 mm 3 mps 723 mmHg 75%
15:00 +26°C° 1 mm 2 mps 722 mmHg 78%
16:00 +26°C° 1 mm 2 mps 722 mmHg 81%
17:00 +24°C° 0.3 mm 2 mps 722 mmHg 84%
18:00 +23°C° 0.3 mm 1 mps 722 mmHg 86%
19:00 +21°C° 0.3 mm 1 mps 722 mmHg 89%
20:00 +21°C° 0.3 mm 1 mps 722 mmHg 90%
21:00 +20°C° 0.3 mm 1 mps 723 mmHg 91%
22:00 +18°C° 0.3 mm 0 mps 723 mmHg 92%
23:00 +17°C° 0.1 mm 0 mps 723 mmHg 92%

9 August, Sunday

Time Temperature Precipitation Wind Pressure Humidity
00:00 +17°C° 0.1 mm 0 mps 723 mmHg 92%
01:00 +17°C° 0.1 mm 0 mps 722 mmHg 92%
02:00 +17°C° 0 mm 0 mps 722 mmHg 92%
03:00 +17°C° 0 mm 0 mps 722 mmHg 93%
04:00 +16°C° 0 mm 0 mps 722 mmHg 93%
05:00 +18°C° 0 mm 0 mps 722 mmHg 92%
06:00 +19°C° 0 mm 0 mps 722 mmHg 91%
07:00 +20°C° 0 mm 0 mps 723 mmHg 90%
08:00 +23°C° 0.5 mm 1 mps 723 mmHg 86%
09:00 +25°C° 0.5 mm 1 mps 723 mmHg 81%
10:00 +26°C° 0.5 mm 1 mps 723 mmHg 77%
11:00 +27°C° 0.4 mm 2 mps 723 mmHg 71%
12:00 +28°C° 0.4 mm 2 mps 722 mmHg 66%
13:00 +28°C° 0.4 mm 2 mps 722 mmHg 60%
14:00 +28°C° 0.3 mm 2 mps 722 mmHg 64%
15:00 +27°C° 0.3 mm 2 mps 722 mmHg 67%
16:00 +27°C° 0.3 mm 2 mps 722 mmHg 71%
17:00 +25°C° 0.3 mm 1 mps 722 mmHg 78%
18:00 +23°C° 0.3 mm 1 mps 722 mmHg 84%
19:00 +20°C° 0.3 mm 0 mps 721 mmHg 91%
20:00 +19°C° 0 mm 0 mps 722 mmHg 91%
21:00 +18°C° 0 mm 0 mps 722 mmHg 91%
22:00 +18°C° 0 mm 0 mps 722 mmHg 91%
23:00 +18°C° 0 mm 0 mps 722 mmHg 91%

10 August, Monday

Time Temperature Precipitation Wind Pressure Humidity
00:00 +17°C° 0 mm 0 mps 722 mmHg 91%
01:00 +17°C° 0 mm 0 mps 722 mmHg 92%
02:00 +17°C° 0 mm 0 mps 722 mmHg 92%
03:00 +17°C° 0 mm 0 mps 721 mmHg 92%
04:00 +17°C° 0 mm 0 mps 721 mmHg 92%
05:00 +18°C° 0 mm 0 mps 722 mmHg 90%
06:00 +19°C° 0 mm 0 mps 722 mmHg 89%
07:00 +20°C° 0 mm 0 mps 722 mmHg 87%
08:00 +25°C° 0 mm 1 mps 722 mmHg 78%
09:00 +27°C° 0 mm 1 mps 722 mmHg 69%
10:00 +29°C° 0 mm 1 mps 723 mmHg 60%
11:00 +29°C° 0.1 mm 1 mps 722 mmHg 57%
12:00 +30°C° 0.1 mm 1 mps 722 mmHg 55%
13:00 +30°C° 0.1 mm 1 mps 722 mmHg 53%
14:00 +30°C° 0.3 mm 1 mps 722 mmHg 58%
15:00 +29°C° 0.3 mm 1 mps 722 mmHg 63%
16:00 +28°C° 0.3 mm 1 mps 722 mmHg 68%
17:00 +26°C° 0.3 mm 1 mps 722 mmHg 75%
18:00 +24°C° 0.3 mm 1 mps 721 mmHg 81%
19:00 +21°C° 0.3 mm 0 mps 721 mmHg 88%
20:00 +20°C° 0 mm 0 mps 722 mmHg 88%
21:00 +19°C° 0 mm 0 mps 722 mmHg 89%
22:00 +19°C° 0 mm 0 mps 722 mmHg 89%
23:00 +20°C° 0 mm 1 mps 722 mmHg 89%
Show more